Date String (YYYY-MM-DD hh:mm:ss) UTC,Instrument flags,absolute air pressure of the measurement (hPa),sample flow rate (lpm),inlet stack bypass flow (lpm),air temperature of the measurement (°C),ambient temperature measured by the external sensor (°C),aerosol sample conditioner tube jacket temperature (°C),OPC LED temperature (°C),internal box temperature (°C),relative humidity of the measurement (%),span deviation,mass concentration of particles derived from Lorenz-Mie calculation of OPC scattering (μg/m³),mass concentration of particles derived from Lorenz-Mie calculation of OPC scattering (μg/m³),mass concentration of particles derived from Lorenz-Mie calculation of OPC scattering (μg/m³)
DateTimeUTC,F1_M11,P_M11,Q1_M11,Q2_M11,T1_M11,T2_M11,T3_M11,T4_M11,T5_M11,U1_M11,ZSPAN_M11,X0_M11,X2_M11,X1_M11
2023-10-10 23:00:00,SystemResetWarning,0820.0,5.00,000.00,028.2,025.4,000.0,036.5,030.0,10.5,0000.0,0013.45,0004.18,0003.25
2023-10-10 23:01:00,SystemResetWarning,0820.0,5.01,000.00,028.2,024.0,000.0,036.4,029.7,10.5,0000.0,0011.45,0004.16,0003.28
2023-10-10 23:02:00,SystemResetWarning,0820.1,5.01,000.00,028.1,024.1,000.0,036.4,029.6,10.6,0000.0,0011.04,0004.18,0003.31
2023-10-10 23:03:00,SystemResetWarning,0820.0,5.01,000.00,028.0,024.4,000.0,036.4,029.5,10.7,0000.0,0011.43,0004.21,0003.32
2023-10-10 23:04:00,SystemResetWarning,0820.0,4.99,000.00,027.9,024.9,000.0,036.4,029.5,10.8,0000.0,0011.83,0004.21,0003.34
2023-10-10 23:05:00,SystemResetWarning,0820.0,5.00,000.00,027.9,025.3,000.0,036.4,029.6,10.7,0000.0,0011.70,0004.21,0003.36
2023-10-10 23:06:00,SystemResetWarning,0820.1,5.00,000.00,028.0,025.7,000.0,036.4,029.7,10.8,0000.0,0011.69,0004.24,0003.38
2023-10-10 23:07:00,SystemResetWarning,0820.1,5.01,000.00,028.0,026.1,000.0,036.5,029.8,10.8,0000.0,0011.41,0004.30,0003.42
2023-10-10 23:08:00,SystemResetWarning,0820.1,5.01,000.00,028.0,026.4,000.0,036.5,029.8,10.7,0000.0,0010.87,0004.34,0003.47
2023-10-10 23:09:00,SystemResetWarning,0820.1,4.99,000.00,028.1,026.7,000.0,036.5,029.9,10.4,0000.0,0010.85,0004.35,0003.54
2023-10-10 23:10:00,SystemResetWarning,0820.1,4.99,000.00,028.1,026.9,000.0,036.5,030.0,10.0,0000.0,0010.87,0004.39,0003.61
2023-10-10 23:11:00,SystemResetWarning,0820.1,5.00,000.00,028.2,027.1,000.0,036.5,030.0,10.1,0000.0,0011.90,0004.44,0003.67
2023-10-10 23:12:00,SystemResetWarning,0820.3,5.01,000.00,028.2,027.2,000.0,036.6,030.1,10.0,0000.0,0013.09,0004.47,0003.72
2023-10-10 23:13:00,SystemResetWarning,0820.1,5.00,000.00,028.3,027.0,000.0,036.6,030.1,10.1,0000.0,0013.67,0004.53,0003.75
2023-10-10 23:14:00,SystemResetWarning,0820.1,4.98,000.00,028.2,025.2,000.0,036.5,030.0,10.3,0000.0,0014.69,0004.57,0003.80
2023-10-10 23:15:00,SystemResetWarning,0820.1,5.01,000.00,028.2,024.0,000.0,036.4,029.7,10.4,0000.0,0014.91,0004.68,0003.85
2023-10-10 23:16:00,SystemResetWarning,0820.0,5.01,000.00,028.1,024.1,000.0,036.4,029.6,10.5,0000.0,0015.24,0004.75,0003.90
2023-10-10 23:17:00,SystemResetWarning,0820.1,5.00,000.00,028.0,024.4,000.0,036.4,029.5,10.6,0000.0,0016.07,0004.82,0003.94
2023-10-10 23:18:00,SystemResetWarning,0820.0,5.00,000.00,028.0,024.9,000.0,036.4,029.5,10.5,0000.0,0016.23,0004.81,0003.97
2023-10-10 23:19:00,SystemResetWarning,0820.0,5.00,000.00,027.9,025.3,000.0,036.4,029.6,10.6,0000.0,0016.61,0004.83,0003.98
2023-10-10 23:20:00,SystemResetWarning,0820.0,5.00,000.00,028.0,025.7,000.0,036.5,029.7,10.5,0000.0,0017.60,0004.85,0003.97
2023-10-10 23:21:00,SystemResetWarning,0820.0,4.99,000.00,028.0,026.1,000.0,036.5,029.7,10.4,0000.0,0018.10,0004.83,0003.94
2023-10-10 23:22:00,SystemResetWarning,0820.0,5.00,000.00,028.0,026.4,000.0,036.5,029.8,10.2,0000.0,0016.95,0004.82,0003.93
2023-10-10 23:23:00,SystemResetWarning,0820.0,5.01,000.00,028.1,026.6,000.0,036.5,029.9,10.2,0000.0,0017.20,0004.92,0003.93
2023-10-10 23:24:00,SystemResetWarning,0820.0,4.99,000.00,028.1,026.9,000.0,036.5,029.9,10.1,0000.0,0017.55,0004.98,0003.94
2023-10-10 23:25:00,SystemResetWarning,0820.0,4.99,000.00,028.2,027.0,000.0,036.5,030.0,10.1,0000.0,0017.33,0004.98,0003.94
2023-10-10 23:26:00,SystemResetWarning,0820.0,5.00,000.00,028.2,027.2,000.0,036.6,030.1,10.2,0000.0,0017.01,0004.91,0003.93
2023-10-10 23:27:00,SystemResetWarning,0820.0,5.00,000.00,028.3,027.3,000.0,036.6,030.2,9.9,0000.0,0017.28,0004.89,0003.94
2023-10-10 23:28:00,SystemResetWarning,0820.0,4.99,000.00,028.3,026.0,000.0,036.6,030.1,9.9,0000.0,0017.87,0004.89,0003.95
2023-10-10 23:29:00,SystemResetWarning,0820.0,5.01,000.00,028.2,024.9,000.0,036.5,030.0,9.8,0000.0,0018.85,0004.97,0003.97
2023-10-10 23:30:00,SystemResetWarning,0820.0,5.02,000.00,028.2,025.0,000.0,036.5,029.8,10.0,0000.0,0018.61,0005.00,0003.99
2023-10-10 23:31:00,SystemResetWarning,0819.9,4.99,000.00,028.1,025.2,000.0,036.5,029.7,10.0,0000.0,0017.40,0005.00,0004.00
2023-10-10 23:32:00,SystemResetWarning,0820.2,4.99,000.00,028.1,025.6,000.0,036.5,029.8,9.8,0000.0,0016.84,0005.03,0004.02
2023-10-10 23:33:00,SystemResetWarning,0820.1,5.01,000.00,028.1,026.0,000.0,036.6,029.8,9.9,0000.0,0016.66,0005.08,0004.06
2023-10-10 23:34:00,SystemResetWarning,0820.1,5.01,000.00,028.2,026.3,000.0,036.6,029.9,9.9,0000.0,0015.46,0005.04,0004.08
2023-10-10 23:35:00,SystemResetWarning,0820.0,5.00,000.00,028.2,026.6,000.0,036.6,030.0,9.9,0000.0,0014.63,0005.02,0004.09
2023-10-10 23:36:00,SystemResetWarning,0820.0,4.99,000.00,028.2,026.8,000.0,036.6,030.0,9.9,0000.0,0013.83,0005.02,0004.09
2023-10-10 23:37:00,SystemResetWarning,0820.1,4.99,000.00,028.3,027.0,000.0,036.6,030.1,9.8,0000.0,0013.91,0005.08,0004.11
2023-10-10 23:38:00,SystemResetWarning,0820.2,5.00,000.00,028.3,027.2,000.0,036.7,030.2,9.8,0000.0,0013.61,0005.09,0004.12
2023-10-10 23:39:00,SystemResetWarning,0820.0,5.00,000.00,028.3,026.3,000.0,036.7,030.1,9.9,0000.0,0012.64,0005.04,0004.11
2023-10-10 23:40:00,SystemResetWarning,0820.2,5.01,000.00,028.2,024.4,000.0,036.6,029.8,9.9,0000.0,0011.99,0004.99,0004.09
2023-10-10 23:41:00,SystemResetWarning,0820.0,5.01,000.00,028.1,023.9,000.0,036.5,029.7,10.0,0000.0,0011.95,0005.01,0004.07
2023-10-10 23:42:00,SystemResetWarning,0820.0,5.00,000.00,028.1,024.2,000.0,036.5,029.5,10.0,0000.0,0012.05,0004.99,0004.05
2023-10-10 23:43:00,SystemResetWarning,0820.1,5.01,000.00,028.0,024.6,000.0,036.5,029.5,10.1,0000.0,0013.30,0005.01,0004.03
2023-10-10 23:44:00,SystemResetWarning,0820.1,5.00,000.00,027.9,025.0,000.0,036.5,029.5,10.0,0000.0,0013.69,0004.98,0004.01
2023-10-10 23:45:00,SystemResetWarning,0820.0,4.99,000.00,028.0,025.5,000.0,036.5,029.6,10.0,0000.0,0014.54,0004.93,0003.97
2023-10-10 23:46:00,SystemResetWarning,0820.0,4.99,000.00,028.0,025.8,000.0,036.5,029.7,9.8,0000.0,0015.00,0004.91,0003.93
2023-10-10 23:47:00,SystemResetWarning,0820.0,5.01,000.00,028.0,026.2,000.0,036.5,029.8,9.7,0000.0,0015.47,0004.93,0003.90
2023-10-10 23:48:00,SystemResetWarning,0820.0,5.01,000.00,028.1,026.4,000.0,036.5,029.8,9.7,0000.0,0016.65,0004.89,0003.87
2023-10-10 23:49:00,SystemResetWarning,0820.0,4.99,000.00,028.1,026.7,000.0,036.5,029.9,9.7,0000.0,0016.98,0004.88,0003.83
2023-10-10 23:50:00,SystemResetWarning,0820.0,4.99,000.00,028.1,026.9,000.0,036.6,030.0,9.6,0000.0,0017.51,0004.95,0003.80
2023-10-10 23:51:00,SystemResetWarning,0820.1,5.00,000.00,028.2,027.1,000.0,036.6,030.0,9.5,0000.0,0018.07,0005.01,0003.78
2023-10-10 23:52:00,SystemResetWarning,0820.1,5.01,000.00,028.2,027.2,000.0,036.6,030.1,9.5,0000.0,0019.55,0004.99,0003.76
2023-10-10 23:53:00,SystemResetWarning,0820.1,5.01,000.00,028.3,027.3,000.0,036.6,030.2,9.5,0000.0,0019.99,0005.03,0003.75
2023-10-10 23:54:00,SystemResetWarning,0820.1,4.98,000.00,028.3,026.3,000.0,036.6,030.1,9.5,0000.0,0020.69,0005.05,0003.75
2023-10-10 23:55:00,SystemResetWarning,0820.1,5.00,000.00,028.2,024.5,000.0,036.5,029.9,9.4,0000.0,0020.59,0005.10,0003.75
2023-10-10 23:56:00,SystemResetWarning,0820.0,5.02,000.00,028.2,024.0,000.0,036.5,029.7,9.5,0000.0,0019.78,0005.17,0003.75
2023-10-10 23:57:00,SystemResetWarning,0820.0,4.99,000.00,028.1,024.2,000.0,036.5,029.5,9.5,0000.0,0020.18,0005.21,0003.76
2023-10-10 23:58:00,SystemResetWarning,0820.0,5.01,000.00,028.0,024.6,000.0,036.5,029.5,9.4,0000.0,0022.02,0005.26,0003.77
2023-10-10 23:59:00,SystemResetWarning,0820.0,5.00,000.00,028.0,025.1,000.0,036.5,029.6,9.4,0000.0,0021.49,0005.32,0003.76
